| time (UTC) | temp F | wind direction | speed knots | gust knots | rain 1hr in | rain 24hr in | rain mn in | humidity % | barometer mb |
| 20260508170007 | 64 | 36 | 0.0 | 3.5 | 0.00 | 0.00 | 0.00 | 61 | 1015.1 |
| 20260508164511 | 65 | 85 | 0.9 | 4.3 | 0.00 | 0.00 | 0.00 | 59 | 1015.1 |
| 20260508163010 | 66 | 76 | 0.0 | 1.7 | 0.00 | 0.00 | 0.00 | 59 | 1015.0 |
| 20260508161510 | 66 | 80 | 0.0 | 3.5 | 0.00 | 0.00 | 0.00 | 58 | 1014.9 |
| 20260508160006 | 66 | 86 | 0.0 | 2.6 | 0.00 | 0.00 | 0.00 | 58 | 1015.0 |
| 20260508154504 | 66 | 77 | 0.9 | 2.6 | 0.00 | 0.00 | 0.00 | 58 | 1015.1 |
| 20260508153003 | 67 | 97 | 0.0 | 3.5 | 0.00 | 0.00 | 0.00 | 57 | 1015.1 |
| 20260508151501 | 68 | 83 | 0.0 | 1.7 | 0.00 | 0.00 | 0.00 | 55 | 1015.3 |
| 20260508150100 | 66 | 87 | 0.0 | 1.7 | 0.00 | 0.00 | 0.00 | 58 | 1015.3 |
| 20260508144609 | 65 | 85 | 0.0 | 1.7 | 0.00 | 0.00 | 0.00 | 59 | 1015.5 |
| 20260508143105 | 68 | 72 | 0.0 | 2.6 | 0.00 | 0.00 | 0.00 | 54 | 1015.6 |
| 20260508141604 | 68 | 280 | 0.0 | 1.7 | 0.00 | 0.00 | 0.00 | 55 | 1015.7 |
| 20260508140053 | 66 | 174 | 0.0 | 1.7 | 0.00 | 0.00 | 0.00 | 55 | 1015.9 |
| 20260508134616 | 66 | 96 | 0.0 | 0.9 | 0.00 | 0.00 | 0.00 | 56 | 1016.1 |
| 20260508133058 | 68 | 346 | 0.0 | 1.7 | 0.00 | 0.00 | 0.00 | 53 | 1016.1 |
| 20260508131551 | 67 | 253 | 0.0 | 1.7 | 0.00 | 0.00 | 0.00 | 52 | 1016.2 |
| 20260508130047 | 67 | 67 | 0.0 | 1.7 | 0.00 | 0.00 | 0.00 | 58 | 1016.3 |
| 20260508124544 | 65 | 68 | 0.0 | 2.6 | 0.00 | 0.01 | 0.00 | 62 | 1016.4 |
| 20260508123049 | 65 | 49 | 0.9 | 2.6 | 0.00 | 0.01 | 0.00 | 58 | 1016.6 |
| 20260508121546 | 65 | 242 | 0.0 | 1.7 | 0.00 | 0.01 | 0.00 | 57 | 1016.6 |
| 20260508120042 | 64 | 33 | 0.0 | 2.6 | 0.00 | 0.01 | 0.00 | 62 | 1016.7 |
| 20260508114541 | 66 | 57 | 0.0 | 1.7 | 0.00 | 0.01 | 0.00 | 56 | 1016.7 |
| 20260508113040 | 65 | 280 | 0.0 | 1.7 | 0.00 | 0.01 | 0.00 | 56 | 1016.8 |
| 20260508111539 | 65 | 78 | 0.0 | 1.7 | 0.00 | 0.01 | 0.00 | 60 | 1016.9 |
| 20260508110034 | 64 | 94 | 0.0 | 2.6 | 0.00 | 0.01 | 0.00 | 62 | 1016.9 |
| 20260508104534 | 64 | 105 | 0.0 | 2.6 | 0.00 | 0.01 | 0.00 | 64 | 1017.2 |
| 20260508103035 | 62 | 85 | 0.0 | 1.7 | 0.00 | 0.01 | 0.00 | 65 | 1017.2 |
| 20260508101534 | 62 | 80 | 0.0 | 0.9 | 0.00 | 0.01 | 0.00 | 63 | 1017.3 |
| 20260508100030 | 62 | 74 | 0.0 | 1.7 | 0.00 | 0.01 | 0.00 | 60 | 1017.4 |
| 20260508094528 | 62 | 50 | 0.9 | 2.6 | 0.00 | 0.01 | 0.00 | 66 | 1017.5 |
| 20260508093027 | 61 | 64 | 0.9 | 2.6 | 0.00 | 0.01 | 0.00 | 66 | 1017.6 |
| 20260508091525 | 61 | 88 | 0.0 | 2.6 | 0.00 | 0.01 | 0.00 | 70 | 1017.6 |
| 20260508090039 | 60 | 86 | 0.0 | 2.6 | 0.00 | 0.01 | 0.00 | 72 | 1017.6 |
| 20260508084519 | 59 | 84 | 0.0 | 2.6 | 0.00 | 0.02 | 0.00 | 74 | 1017.6 |
| 20260508083020 | 58 | 30 | 0.9 | 3.5 | 0.00 | 0.02 | 0.00 | 73 | 1017.6 |
| 20260508081514 | 57 | 81 | 0.0 | 2.6 | 0.00 | 0.02 | 0.00 | 75 | 1017.7 |
| 20260508080013 | 56 | 94 | 0.0 | 2.6 | 0.00 | 0.02 | 0.00 | 76 | 1017.7 |
| 20260508074512 | 56 | 99 | 0.0 | 1.7 | 0.00 | 0.06 | 0.00 | 77 | 1017.7 |
| 20260508073009 | 55 | 76 | 0.0 | 1.7 | 0.00 | 0.06 | 0.00 | 78 | 1017.7 |
| 20260508071508 | 54 | 75 | 0.0 | 0.9 | 0.00 | 0.06 | 0.00 | 78 | 1017.7 |
| 20260508070003 | 53 | 75 | 0.0 | 0.9 | 0.00 | 0.06 | 0.00 | 81 | 1017.7 |
| 20260508064617 | 51 | 74 | 0.0 | 1.7 | 0.00 | 0.08 | 0.00 | 84 | 1017.8 |
| 20260508063107 | 49 | 69 | 0.0 | 0.9 | 0.00 | 0.08 | 0.00 | 87 | 1017.7 |
| 20260508061604 | 48 | 68 | 0.0 | 0.9 | 0.00 | 0.08 | 0.00 | 90 | 1017.6 |
| 20260508054546 | 44 | 72 | 0.0 | 0.0 | 0.00 | 0.09 | 0.00 | 93 | 1017.7 |
| 20260508053046 | 43 | 72 | 0.0 | 0.0 | 0.00 | 0.09 | 0.00 | 95 | 1017.7 |
| 20260508051603 | 42 | 72 | 0.0 | 0.0 | 0.00 | 0.09 | 0.00 | 95 | 1017.6 |
| 20260508050043 | 41 | 72 | 0.0 | 0.0 | 0.00 | 0.09 | 0.00 | 95 | 1017.5 |
| 20260508044548 | 40 | 72 | 0.0 | 0.0 | 0.00 | 0.09 | 0.00 | 95 | 1017.4 |
| 20260508043043 | 39 | 72 | 0.0 | 0.0 | 0.00 | 0.09 | 0.00 | 95 | 1017.4 |
| 20260508041542 | 39 | 72 | 0.0 | 0.0 | 0.00 | 0.09 | 0.00 | 95 | 1017.2 |
| 20260508040050 | 39 | 72 | 0.0 | 0.0 | 0.00 | 0.09 | 0.00 | 94 | 1017.1 |
| 20260508034548 | 39 | 72 | 0.0 | 0.0 | 0.00 | 0.09 | 0.00 | 94 | 1017.1 |
| 20260508033046 | 40 | 72 | 0.0 | 0.0 | 0.00 | 0.09 | 0.00 | 94 | 1017.0 |
| 20260508031544 | 40 | 72 | 0.0 | 0.0 | 0.00 | 0.09 | 0.00 | 94 | 1016.9 |
| 20260508030037 | 40 | 72 | 0.0 | 0.0 | 0.00 | 0.09 | 0.00 | 94 | 1016.8 |
| 20260508024559 | 41 | 72 | 0.0 | 0.0 | 0.00 | 0.10 | 0.00 | 94 | 1016.8 |
| 20260508023038 | 41 | 72 | 0.0 | 0.0 | 0.00 | 0.10 | 0.00 | 94 | 1016.9 |
| 20260508021537 | 41 | 72 | 0.0 | 0.0 | 0.00 | 0.10 | 0.00 | 94 | 1017.0 |
| 20260508020035 | 41 | 72 | 0.0 | 0.0 | 0.00 | 0.10 | 0.00 | 94 | 1016.9 |
| 20260508014536 | 42 | 72 | 0.0 | 0.0 | 0.00 | 0.10 | 0.00 | 94 | 1017.0 |
| 20260508013034 | 42 | 72 | 0.0 | 0.9 | 0.00 | 0.10 | 0.00 | 94 | 1016.9 |
| 20260508011532 | 42 | 72 | 0.0 | 0.0 | 0.00 | 0.10 | 0.00 | 94 | 1016.8 |
| 20260508010030 | 42 | 72 | 0.0 | 0.0 | 0.00 | 0.10 | 0.00 | 94 | 1016.9 |
| 20260508004541 | 42 | 72 | 0.0 | 1.7 | 0.00 | 0.10 | 0.00 | 94 | 1016.9 |
| 20260508003026 | 42 | 293 | 0.0 | 0.0 | 0.00 | 0.10 | 0.00 | 94 | 1017.1 |
| 20260508001534 | 42 | 293 | 0.0 | 0.0 | 0.00 | 0.10 | 0.00 | 94 | 1017.2 |
| 20260508000024 | 42 | 293 | 0.0 | 0.0 | 0.00 | 0.10 | 0.00 | 94 | 1017.3 |
| 20260507234523 | 42 | 293 | 0.0 | 0.0 | 0.00 | 0.10 | 0.00 | 93 | 1017.3 |
| 20260507233021 | 43 | 293 | 0.0 | 0.0 | 0.00 | 0.10 | 0.00 | 93 | 1017.4 |
| 20260507231522 | 43 | 293 | 0.0 | 0.0 | 0.00 | 0.10 | 0.00 | 93 | 1017.6 |
| 20260507230018 | 44 | 293 | 0.0 | 0.0 | 0.00 | 0.10 | 0.00 | 93 | 1017.6 |
| 20260507224519 | 44 | 293 | 0.0 | 0.0 | 0.00 | 0.11 | 0.00 | 93 | 1017.6 |
| 20260507223015 | 44 | 293 | 0.0 | 0.0 | 0.00 | 0.11 | 0.00 | 93 | 1017.5 |
| 20260507221514 | 45 | 293 | 0.0 | 0.0 | 0.00 | 0.11 | 0.00 | 92 | 1017.4 |
| 20260507220013 | 45 | 293 | 0.0 | 0.0 | 0.00 | 0.11 | 0.00 | 92 | 1017.4 |
| 20260507214509 | 45 | 293 | 0.0 | 0.0 | 0.00 | 0.11 | 0.11 | 92 | 1017.3 |
| 20260507213011 | 45 | 293 | 0.0 | 0.0 | 0.00 | 0.11 | 0.11 | 92 | 1017.4 |
| 20260507211507 | 46 | 293 | 0.0 | 0.0 | 0.00 | 0.11 | 0.11 | 91 | 1017.3 |
| 20260507210005 | 46 | 293 | 0.0 | 0.0 | 0.00 | 0.11 | 0.11 | 90 | 1017.3 |
| 20260507204503 | 47 | 293 | 0.0 | 0.0 | 0.00 | 0.11 | 0.11 | 89 | 1017.2 |
| 20260507203132 | 48 | 293 | 0.0 | 0.0 | 0.00 | 0.11 | 0.11 | 88 | 1017.2 |
| 20260507201556 | 49 | 273 | 0.0 | 0.0 | 0.00 | 0.11 | 0.11 | 87 | 1017.0 |
| 20260507200057 | 50 | 273 | 0.0 | 0.0 | 0.00 | 0.11 | 0.11 | 84 | 1016.9 |
| 20260507194609 | 51 | 273 | 0.0 | 0.0 | 0.00 | 0.11 | 0.11 | 82 | 1016.8 |
| 20260507193052 | 52 | 273 | 0.0 | 0.0 | 0.00 | 0.11 | 0.11 | 81 | 1016.6 |
| 20260507191551 | 52 | 273 | 0.0 | 0.0 | 0.00 | 0.11 | 0.11 | 80 | 1016.5 |
| 20260507190055 | 52 | 273 | 0.0 | 0.0 | 0.00 | 0.11 | 0.11 | 79 | 1016.4 |
| 20260507184550 | 53 | 273 | 0.0 | 0.0 | 0.00 | 0.12 | 0.11 | 78 | 1016.3 |
| 20260507183047 | 53 | 273 | 0.0 | 0.9 | 0.00 | 0.12 | 0.11 | 77 | 1016.2 |
| 20260507181546 | 53 | 282 | 0.0 | 2.6 | 0.00 | 0.12 | 0.11 | 76 | 1016.0 |
| 20260507180045 | 54 | 267 | 0.0 | 0.0 | 0.00 | 0.12 | 0.11 | 76 | 1016.0 |
| 20260507174547 | 54 | 268 | 0.0 | 0.9 | 0.00 | 0.14 | 0.11 | 76 | 1015.9 |
| 20260507173114 | 54 | 269 | 0.0 | 0.9 | 0.00 | 0.14 | 0.11 | 75 | 1015.7 |
| 20260507171543 | 54 | 263 | 0.0 | 1.7 | 0.00 | 0.14 | 0.11 | 75 | 1015.6 |